Wind_Speed
31 29 29 29 35 40 44 47 49 50 52 55 55 59 62 64 66 67 65 67 66 63 62 62 63 64 68 69 66 64 63 66 68 69 70 65 56 49 43 37 35 33 30
34 33 33 34 37 41 45 48 48 51 55 54 59 62 64 67 65 65 64 66 63 63 62 62 63 68 69 66 65 64 66 70 72 68 59 48 43 40 38 37 38 35 32
36 36 39 41 42 41 43 45 49 54 55 58 62 62 62 63 68 65 64 64 66 65 62 63 67 70 65 64 64 67 71 71 66 55 48 43 39 38 42 42 44 41 37
38 41 42 45 39 39 42 47 50 51 56 59 61 59 62 65 66 65 63 65 65 61 62 65 69 64 62 63 67 70 71 66 56 49 47 46 45 40 31 34 39 36 33
40 40 39 39 42 42 43 45 51 53 57 55 59 61 62 63 65 63 65 65 61 61 64 67 62 60 62 64 68 69 64 57 52 49 44 38 34 30 27 24 30 31 26
40 41 41 40 41 45 49 50 52 57 55 55 60 62 66 70 63 63 65 60 61 62 65 61 60 60 62 66 68 64 60 53 46 40 34 31 29 27 25 23 24 26 24
40 42 42 42 51 46 48 48 52 53 56 58 61 62 64 63 60 63 61 60 61 61 60 57 58 59 63 67 63 60 52 43 37 35 35 33 30 27 25 23 23 23 22
41 41 46 53 46 44 43 46 48 56 60 57 55 60 60 59 61 63 61 60 61 58 55 56 58 61 65 65 61 52 43 37 37 37 35 33 30 27 25 24 23 23 20
44 45 54 52 47 41 41 49 56 54 55 57 57 59 57 60 61 62 60 59 57 52 53 55 58 62 64 61 54 44 40 39 38 37 36 34 33 30 28 25 22 21 20
49 53 53 42 38 41 50 53 52 54 61 61 58 54 56 58 60 58 57 56 52 51 53 55 58 61 61 59 48 43 42 40 38 39 39 37 35 32 28 24 21 20 17
52 43 40 40 45 49 51 49 56 55 55 54 52 51 54 58 56 53 53 50 49 49 52 55 59 59 57 55 46 43 42 42 41 40 39 38 36 32 28 23 19 18 15
43 45 46 45 44 48 52 52 52 51 56 55 50 52 57 53 50 51 49 47 47 49 51 54 59 57 55 51 45 43 43 42 39 37 36 36 35 32 27 22 19 17 13
43 43 44 46 49 48 44 47 50 53 59 50 53 55 51 48 49 47 45 43 45 48 51 54 58 55 53 48 44 44 43 41 39 37 35 35 34 31 27 20 18 16 12
42 41 41 40 42 44 43 49 53 49 46 52 54 53 48 46 45 44 40 41 44 47 50 54 56 52 51 46 42 42 41 40 39 37 35 34 32 26 23 20 18 15 11
41 40 39 39 41 43 49 50 52 46 50 52 55 48 46 44 42 39 39 40 44 46 49 54 52 49 49 44 41 41 40 39 40 38 36 32 29 25 22 22 19 14 10
40 39 38 39 44 43 46 50 49 49 53 51 46 43 41 41 40 35 37 39 42 46 50 53 47 46 47 43 42 43 42 42 42 41 38 33 28 24 24 23 18 15 8
38 39 39 38 42 44 45 46 45 48 50 49 46 42 40 38 36 34 36 38 40 45 50 53 45 44 45 44 44 44 45 44 45 44 38 32 28 24 24 22 19 12 6
35 37 39 40 43 44 44 44 47 47 47 45 42 41 38 37 35 36 35 36 39 43 48 51 43 41 44 45 45 46 46 46 45 42 36 29 25 26 25 21 18 11 4
37 37 38 39 40 41 43 44 44 44 42 41 41 38 38 36 37 36 34 34 37 41 45 49 41 40 44 45 44 44 45 45 43 39 33 26 26 25 24 21 16 9 4
39 40 39 42 42 43 43 43 43 42 40 41 40 37 36 35 36 34 32 32 35 38 43 48 42 39 43 44 42 42 44 44 41 37 30 25 27 26 23 20 16 8 9
41 40 39 40 40 41 43 43 42 41 39 37 36 35 34 34 34 33 31 32 34 37 43 48 46 38 40 43 43 42 42 40 38 33 27 26 26 26 22 21 18 12 14
41 38 41 42 42 44 44 42 40 39 39 39 37 34 32 32 33 32 31 31 33 36 41 47 49 37 39 41 43 41 40 38 36 32 27 28 26 25 23 23 20 15 19
38 41 43 42 42 41 39 39 41 41 40 38 35 33 31 31 31 31 30 30 32 33 38 43 47 38 38 41 43 39 38 37 34 31 27 29 26 25 25 24 21 18 26
40 41 41 40 37 37 39 40 41 41 40 37 34 31 30 29 29 28 29 30 31 32 34 39 44 38 32 35 37 37 37 36 34 31 27 26 25 23 26 25 24 23 34
39 40 38 36 37 38 39 40 41 41 40 36 31 29 28 27 25 26 28 29 29 30 31 34 39 40 29 30 34 36 35 37 35 32 28 26 26 24 26 26 25 27 38
38 37 35 35 36 37 39 40 42 42 40 36 29 27 26 24 23 24 26 28 28 30 31 32 37 41 33 31 33 37 36 37 38 34 26 24 24 24 25 24 25 29 37
Wind_Direction
305 301 299 298 298 298 298 299 300 305 310 313 321 321 323 325 325 322 320 324 324 324 321 320 320 319 319 320 317 317 316 316 315 313 311 309 307 304 301 298 293 288 281
301 300 295 295 297 295 297 299 303 307 313 322 321 323 324 324 322 323 323 323 323 322 322 321 320 320 321 319 319 319 318 318 317 315 312 310 310 309 304 301 293 289 285
306 299 301 295 300 293 297 303 304 314 320 320 323 322 324 327 324 323 325 324 323 322 322 321 321 320 321 320 321 322 321 320 319 318 316 313 309 303 301 298 291 287 282
297 300 301 303 299 297 300 305 312 315 318 321 321 323 322 323 325 325 323 324 323 322 321 321 321 322 323 325 324 323 323 323 323 322 319 315 311 307 301 293 291 293 288
301 305 305 301 302 307 309 311 312 316 315 320 323 325 327 325 322 324 324 323 322 321 322 323 323 325 328 326 325 327 327 326 325 323 319 319 319 318 314 303 295 294 290
306 305 306 306 311 312 312 310 314 313 316 320 324 326 327 321 320 323 322 322 321 322 323 325 326 328 328 328 329 330 329 330 330 329 331 328 324 318 315 310 301 293 290
309 307 305 308 313 313 310 312 314 318 320 324 324 325 325 319 320 322 321 321 321 324 326 327 328 329 330 331 332 332 333 335 334 333 332 331 328 321 315 311 305 300 293
309 308 312 314 315 310 309 312 319 319 320 323 321 321 320 315 319 321 320 322 323 326 328 329 330 331 334 333 335 335 338 338 336 335 336 337 332 324 320 317 310 301 294
316 311 311 315 316 311 308 310 320 321 323 322 321 319 314 315 319 321 322 325 326 327 330 331 333 334 335 335 338 339 340 340 338 337 338 338 333 329 324 318 310 301 292
313 309 312 314 313 314 319 317 315 316 322 321 318 314 315 319 321 323 326 327 327 330 333 334 334 336 336 339 341 341 341 340 339 338 337 337 333 331 325 318 310 304 290
309 310 309 303 307 311 314 314 320 321 319 316 316 314 317 322 323 326 327 327 329 333 334 335 336 338 340 342 342 340 341 341 340 339 337 335 330 329 324 316 310 305 291
311 309 309 312 310 311 312 314 317 319 318 320 316 314 318 323 325 327 330 327 332 335 336 337 338 340 343 342 341 342 342 342 341 340 336 331 328 327 320 315 310 304 288
313 312 312 311 311 311 313 319 321 318 320 320 313 316 320 324 327 331 330 329 333 336 338 340 341 341 345 343 342 345 344 342 342 341 336 332 328 325 318 317 315 305 283
320 321 319 320 321 316 318 317 325 322 321 314 317 320 323 325 331 331 329 331 335 338 340 342 342 343 345 343 345 346 344 343 344 342 337 334 328 327 326 326 322 312 277
323 321 320 321 321 324 323 319 320 321 316 317 319 323 325 329 333 330 331 334 336 340 343 344 344 345 345 345 347 348 346 346 349 344 341 336 333 334 333 332 327 314 278
330 328 322 318 329 332 326 318 322 319 320 320 322 325 328 331 333 331 333 334 337 342 345 346 346 347 347 347 350 351 350 352 348 346 345 343 338 340 339 336 330 317 269
337 333 324 324 326 331 333 333 327 325 325 324 324 326 332 332 334 335 334 334 340 343 347 348 348 349 348 350 353 353 353 352 350 350 352 347 344 344 342 338 334 327 256
335 332 333 330 332 332 331 329 325 325 325 325 329 332 334 335 336 337 334 335 340 346 348 351 348 350 352 353 355 354 355 352 351 353 353 350 350 347 347 345 339 336 224
336 337 336 334 329 327 325 324 324 325 329 332 331 336 334 337 337 337 335 338 340 346 350 353 351 352 355 357 357 357 355 352 352 354 354 354 356 355 355 353 353 353 163
341 340 336 333 334 333 331 330 329 329 332 333 336 335 335 336 339 338 338 339 340 345 349 355 356 354 358 358 0 360 356 354 355 355 356 359 1 3 3 6 12 38 134
334 334 334 335 334 331 330 330 331 334 335 336 335 336 334 336 339 340 340 342 342 347 351 357 359 358 359 359 3 2 359 357 0 1 2 6 9 10 15 22 32 63 127
335 336 335 332 330 330 331 336 339 339 339 339 339 334 332 335 340 342 344 345 347 351 354 358 1 359 360 1 4 3 0 2 8 8 9 15 18 18 29 37 47 73 126
335 333 332 330 329 332 339 340 339 338 337 337 336 333 333 335 341 345 347 349 351 354 356 360 2 359 359 3 4 3 4 8 14 16 18 20 24 29 40 48 62 88 129
333 334 334 333 336 341 342 340 338 338 337 337 335 334 333 337 342 348 350 351 354 357 360 1 3 2 2 3 2 8 9 13 17 25 29 27 31 40 47 57 73 100 134
333 334 336 339 343 345 345 343 342 341 339 339 338 336 335 338 342 350 352 354 356 359 2 4 6 5 3 3 10 14 17 18 22 27 28 32 35 43 50 64 84 116 138
333 337 340 343 347 348 348 347 345 343 341 342 341 338 338 338 343 350 353 355 359 2 4 5 8 8 8 9 11 16 22 25 26 24 25 35 42 47 56 73 99 128 140
Height
5822 5817 5812 5807 5801 5794 5787 5780 5775 5768 5761 5754 5745 5737 5729 5719 5710 5699 5687 5677 5667 5657 5647 5638 5627 5616 5605 5594 5584 5573 5562 5550 5540 5526 5507 5499 5491 5485 5481 5477 5474 5472 5472
5815 5811 5806 5801 5794 5786 5779 5773 5766 5759 5752 5743 5735 5727 5718 5708 5698 5687 5677 5667 5657 5646 5636 5626 5615 5604 5592 5580 5570 5559 5548 5533 5522 5510 5499 5489 5478 5472 5468 5465 5461 5461 5462
5808 5804 5800 5793 5787 5779 5772 5765 5758 5750 5742 5734 5725 5716 5708 5699 5689 5678 5667 5657 5646 5635 5625 5615 5605 5593 5581 5570 5558 5545 5533 5519 5503 5492 5485 5477 5472 5467 5456 5453 5447 5448 5449
5802 5798 5792 5786 5779 5771 5765 5757 5750 5742 5734 5726 5717 5709 5699 5688 5679 5668 5658 5647 5636 5625 5615 5604 5593 5581 5570 5558 5545 5532 5518 5504 5492 5481 5472 5464 5458 5452 5451 5443 5436 5435 5436
5795 5790 5784 5778 5771 5764 5756 5750 5742 5734 5727 5718 5710 5699 5688 5679 5668 5659 5649 5638 5627 5617 5606 5594 5582 5571 5558 5546 5534 5517 5503 5492 5480 5471 5463 5455 5449 5444 5441 5438 5430 5427 5427
5787 5782 5776 5769 5763 5756 5750 5741 5735 5727 5719 5710 5700 5690 5680 5670 5660 5649 5639 5628 5618 5608 5597 5585 5574 5561 5549 5536 5520 5506 5494 5481 5471 5463 5455 5449 5444 5439 5434 5430 5426 5421 5419
5780 5774 5767 5762 5756 5749 5741 5734 5727 5718 5710 5700 5691 5683 5672 5662 5653 5642 5631 5620 5609 5598 5586 5575 5564 5553 5540 5524 5509 5497 5484 5474 5466 5458 5450 5444 5439 5433 5428 5424 5420 5416 5413
5772 5766 5760 5753 5746 5740 5733 5726 5718 5709 5700 5691 5684 5675 5665 5655 5645 5634 5623 5612 5602 5590 5579 5567 5557 5544 5530 5515 5502 5488 5479 5470 5462 5453 5446 5440 5433 5427 5422 5417 5413 5409 5407
5764 5759 5751 5744 5738 5730 5723 5717 5709 5701 5693 5685 5676 5667 5657 5647 5637 5626 5615 5604 5593 5582 5570 5560 5548 5535 5520 5507 5494 5483 5474 5466 5457 5449 5441 5435 5428 5421 5415 5411 5407 5403 5401
5755 5748 5742 5735 5729 5723 5716 5709 5702 5694 5686 5677 5668 5659 5649 5639 5628 5617 5607 5596 5585 5575 5564 5553 5541 5526 5512 5499 5488 5478 5470 5461 5453 5444 5436 5429 5421 5415 5409 5405 5401 5397 5395
5747 5739 5733 5728 5722 5716 5709 5702 5694 5686 5678 5669 5659 5651 5641 5631 5619 5609 5599 5589 5578 5569 5558 5547 5535 5519 5506 5493 5483 5475 5466 5456 5447 5439 5431 5423 5415 5410 5404 5399 5395 5392 5389
5739 5733 5726 5721 5715 5709 5702 5695 5687 5679 5670 5661 5652 5643 5633 5621 5611 5601 5592 5583 5573 5563 5553 5541 5529 5514 5500 5489 5480 5470 5461 5452 5443 5434 5426 5418 5410 5404 5398 5394 5390 5387 5384
5733 5726 5720 5713 5706 5700 5694 5687 5679 5670 5662 5653 5645 5635 5624 5613 5604 5594 5585 5577 5568 5558 5548 5535 5523 5509 5497 5486 5476 5466 5457 5448 5439 5430 5422 5413 5405 5398 5392 5388 5384 5381 5379
5725 5719 5711 5705 5698 5692 5686 5679 5670 5661 5654 5646 5637 5627 5616 5606 5596 5588 5580 5572 5563 5553 5543 5530 5518 5505 5493 5484 5474 5464 5454 5444 5435 5426 5417 5409 5401 5394 5387 5383 5378 5375 5374
5720 5713 5705 5699 5692 5686 5679 5671 5664 5655 5647 5639 5629 5618 5610 5601 5591 5583 5576 5567 5559 5549 5538 5526 5513 5502 5491 5482 5472 5461 5451 5441 5431 5421 5413 5404 5395 5389 5383 5378 5373 5370 5368
5714 5707 5700 5694 5687 5680 5672 5664 5656 5649 5641 5632 5621 5611 5603 5596 5587 5578 5571 5563 5554 5545 5534 5523 5511 5500 5489 5479 5468 5458 5448 5436 5426 5418 5408 5399 5390 5384 5378 5373 5368 5364 5362
5709 5702 5696 5689 5682 5674 5666 5659 5651 5643 5634 5625 5616 5607 5598 5591 5583 5574 5567 5560 5551 5541 5531 5520 5509 5499 5488 5477 5466 5455 5444 5433 5423 5413 5404 5395 5388 5381 5375 5369 5363 5359 5357
5706 5699 5692 5684 5676 5669 5661 5654 5646 5637 5628 5619 5611 5602 5595 5588 5579 5571 5564 5557 5549 5539 5529 5518 5508 5498 5487 5476 5464 5452 5441 5430 5421 5411 5402 5394 5386 5380 5373 5366 5360 5355 5353
5701 5694 5686 5679 5671 5664 5656 5648 5640 5631 5622 5613 5606 5598 5592 5583 5576 5567 5561 5554 5547 5538 5529 5518 5506 5497 5487 5476 5464 5453 5441 5430 5420 5411 5403 5395 5387 5379 5372 5365 5358 5353 5352
5696 5688 5681 5674 5666 5658 5651 5643 5634 5625 5617 5609 5601 5594 5588 5580 5573 5565 5558 5552 5545 5537 5528 5517 5505 5496 5486 5477 5466 5454 5442 5432 5422 5412 5403 5395 5387 5380 5373 5365 5359 5354 5354
5691 5684 5676 5669 5661 5654 5646 5637 5629 5620 5612 5604 5597 5590 5584 5578 5570 5562 5556 5549 5542 5534 5525 5515 5505 5496 5488 5478 5466 5455 5445 5435 5424 5415 5406 5398 5390 5383 5375 5368 5362 5359 5358
5685 5678 5671 5664 5656 5648 5639 5631 5623 5616 5608 5601 5593 5587 5581 5575 5567 5560 5554 5547 5540 5532 5524 5514 5504 5496 5489 5480 5469 5458 5448 5438 5428 5419 5410 5402 5395 5388 5380 5373 5369 5366 5367
5680 5673 5666 5658 5650 5642 5634 5627 5620 5612 5604 5597 5590 5584 5578 5572 5565 5559 5552 5546 5539 5532 5524 5516 5506 5497 5489 5480 5471 5462 5451 5442 5432 5423 5415 5408 5401 5395 5388 5383 5379 5377 5378
5676 5668 5661 5653 5646 5638 5630 5623 5616 5608 5601 5593 5587 5581 5576 5570 5564 5558 5551 5545 5539 5532 5525 5517 5509 5500 5493 5486 5478 5466 5455 5445 5436 5428 5421 5415 5410 5404 5398 5393 5390 5390 5393
5671 5664 5656 5649 5641 5634 5627 5619 5612 5605 5597 5590 5584 5579 5574 5568 5563 5557 5551 5545 5539 5533 5526 5520 5512 5503 5496 5490 5481 5471 5461 5450 5441 5432 5428 5423 5418 5413 5409 5406 5404 5405 5409
5667 5659 5651 5645 5638 5631 5624 5616 5609 5601 5593 5586 5581 5576 5571 5567 5562 5557 5551 5545 5539 5533 5526 5520 5513 5505 5496 5490 5483 5475 5466 5456 5446 5441 5436 5431 5427 5423 5420 5418 5419 5421 5424